Location: Unspecified
(0.0000°N, 0.0000°E)
Time: 21:04:59
(UTC+00:00)

Transit 4A - Pass Details

Date: 04 June 2022
Orbit: 864 x 980 km, 66.8° (Epoch: 26 June)

Event Time Altitude Azimuth Distance (km) Brightness Sun altitude
Rises 01:19:17 0° 232° (SW) 3,599 - -60.1°
Reaches altitude 10° 01:22:40 10° 250° (WSW) 2,673 - -59.6°
Maximum altitude 01:26:42 18° 291° (WNW) 2,177 - -58.9°
Drops below altitude 10° 01:30:46 10° 331° (NNW) 2,705 - -58.2°
Sets 01:34:16 0° 350° (N) 3,659 - -57.6°
